Location: Ash Swamp
(41.5170°N, 74.6157°W)
Time: 17:01:04
(UTC+00:00)

CBERS-1 - Pass Details

Date: 14 July 2020
Orbit: 770 x 776 km, 98.6° (Epoch: 04 August)

Event Time Altitude Azimuth Distance (km) Brightness Sun altitude
Rises 07:34:13 0° 9° (N) 3,265 8.4 -18.0°
Reaches altitude 10° 07:36:34 10° 6° (N) 2,333 7.4 -17.7°
Maximum altitude 07:41:37 60° 288° (WNW) 883 4.2 -17.2°
Enters shadow 07:44:09 29° 218° (SW) 1,400 4.8 -16.9°
